Location: Br�ttisellen
(47.4227°N, 8.6287°E)
Time: 23:33:11
(UTC+00:00)

Cosmos 1076 Rocket - Pass Details

Date: 09 April 2020
Orbit: 590 x 612 km, 82.5° (Epoch: 27 May)

Event Time Altitude Azimuth Distance (km) Brightness Sun altitude
Rises 19:38:26 0° 356° (N) 2,850 7.5 -15.2°
Reaches altitude 10° 19:40:44 10° 3° (N) 1,946 6.5 -15.5°
Maximum altitude 19:44:51 43° 76° (ENE) 845 3.9 -16.1°
Enters shadow 19:46:21 31° 124° (ESE) 1,060 4.2 -16.3°
